User: anonymous   Login
Location: Maiden_LMO
(35.5760°N, 81.2120°W)
Time: 22:40:37
(UTC-04:00)
Language:

ADEOS II - Orbit

View from above orbital plane
View from above orbital plane
View from above satellite
View from above satellite

Ground track
Ground track

The orbit data is extracted from the following two-line orbital elements,

1 27597U 02056A   18173.88816783  .00000020  00000-0  25313-4 0  9992
2 27597  98.4213 133.7961 0001095  35.5138 324.6116 14.27354063808306
Epoch (UTC): 22 June 2018 21:18:57
Eccentricity: 0.0001095
inclination: 98.4213°
perigee height: 800 km
apogee height: 801 km
right ascension of ascending node: 133.7961°
argument of perigee: 35.5138°
revolutions per day: 14.27354063
mean anomaly at epoch: 324.6116°
orbit number at epoch: 80830

The dashed part of the orbit path shows where the satellite is in the earth's shadow,  

DLR